Find Starlink 35496

NORAD ID: 66114 Int'l Des: 2025-237 Owner: SPXS Country: US Constellation: starlink operational
LEOCIRCULAR

当前视图

正在加载3D地球...

About Starlink 35496

Starlink 35496 (NORAD 66114) is a starlink constellation satellite (v2 mini) launched Oct 22, 2025 by SPXS of US. It operates in LEO, CIRCULAR orbit with a mass of 575.00 kg.

即将过境

Passes for default location (London). Set your location on the main map for personalized predictions.

高度历史

Loading altitude history...

两行轨道根数

1 66114U 25237A 26263.56596876 .00008753 00000-0 26986-3 0 9995
2 66114 53.1599 211.1353 0000727 109.0580 251.0501 15.34401492 52494
Epoch: Sep 20, 2026 • Age: 11 hours

当前状态

高度 468.7 km
远地点 / 近地点 N/A
速度 7.64 km/s
星下点 53.21°N, 70.05°W
发射日期 Oct 22, 2025
运行时间 0.9 years
类型 internet

技术详情

分类 Payload
质量 575.00 kg
干质量 530.00 kg
长度 0.30 m
跨度 29.00 m
形状 ? Box + pan
制造商 SPXS
平台类型 Starlink V2MO
阶段状态 In Orbit
所有者/国家 SPXS/US

Most Searched